Location: Bergnerzell
(49.1816°N, 10.2565°E)
Time: 01:47:12
(UTC+00:00)

Cosmos 1953 - Pass Details

Date: 23 May 2024
Orbit: 510 x 531 km, 82.5° (Epoch: 19 June)

Event Time Altitude Azimuth Distance (km) Brightness Sun altitude
Rises 00:59:06 0° 346° (NNW) 2,686 6.7 -16.5°
Reaches altitude 10° 01:01:17 10° 341° (NNW) 1,788 5.6 -16.3°
Maximum altitude 01:05:07 52° 265° (W) 660 2.5 -16.1°
Enters shadow 01:06:32 33° 207° (SSW) 905 2.8 -15.9°
